SP3WRO-13 Weather Reports


time (UTC)temp
C
wind
direction
speed
KPH
gust
KPH
rain 1hr
cm
rain 24hr
cm
rain mn
cm
humidity
%
barometer
mb
20260504081440 20 221 4.8 11.3 0.00 0.00 0.00 54 1008.1
20260504045939 12 18 0.0 0.0 0.00 0.00 0.00 80 1007.8
20260504044439 11 6 0.0 0.0 0.00 0.00 0.00 84 1007.7
20260504042939 10 112 0.0 0.0 0.00 0.00 0.00 83 1007.5
20260504041439 10 42 0.0 0.0 0.00 0.00 0.00 82 1007.3
20260504035939 9 42 0.0 0.0 0.00 0.00 0.00 83 1007.2
20260504034439 9 42 0.0 0.0 0.00 0.00 0.00 80 1007.0
20260504032939 8 42 0.0 0.0 0.00 0.00 0.00 81 1006.9
20260504031439 8 42 0.0 0.0 0.00 0.00 0.00 80 1007.0
20260504025939 8 42 0.0 0.0 0.00 0.00 0.00 79 1007.0
20260504024439 9 42 0.0 0.0 0.00 0.00 0.00 78 1006.8
20260504022938 9 42 0.0 0.0 0.00 0.00 0.00 78 1006.7
20260504021438 9 42 0.0 0.0 0.00 0.00 0.00 76 1006.6
20260504015938 9 42 0.0 0.0 0.00 0.00 0.00 76 1006.7
20260504014438 9 42 0.0 0.0 0.00 0.00 0.00 78 1006.6
20260504012937 10 42 0.0 0.0 0.00 0.00 0.00 75 1006.6
20260504011437 10 42 0.0 0.0 0.00 0.00 0.00 76 1006.5
20260504005937 10 42 0.0 0.0 0.00 0.00 0.00 74 1006.5
20260504004437 10 42 0.0 0.0 0.00 0.00 0.00 76 1006.6
20260504002937 10 42 0.0 0.0 0.00 0.00 0.00 72 1006.5
20260504001437 11 42 0.0 0.0 0.00 0.00 0.00 70 1006.5
20260503235937 11 42 0.0 0.0 0.00 0.00 0.00 70 1006.5
20260503234437 11 42 0.0 0.0 0.00 0.00 0.00 74 1006.4
20260503232937 11 42 0.0 0.0 0.00 0.00 0.00 70 1006.4
20260503231437 12 42 0.0 0.0 0.00 0.00 0.00 68 1006.4
20260503225937 12 42 0.0 0.0 0.00 0.00 0.00 68 1006.4
20260503224437 13 42 0.0 0.0 0.00 0.00 0.00 70 1006.3
20260503222937 13 42 0.0 0.0 0.00 0.00 0.00 70 1006.3
20260503221437 13 42 0.0 0.0 0.00 0.00 0.00 66 1006.3
20260503215937 14 42 0.0 0.0 0.00 0.00 0.00 64 1006.4
20260503214437 15 42 0.0 0.0 0.00 0.00 0.00 58 1006.3
20260503212937 15 42 0.0 0.0 0.00 0.00 0.00 56 1006.4
20260503211436 16 42 0.0 4.8 0.00 0.00 0.00 57 1006.3
20260503205936 15 48 0.0 0.0 0.00 0.00 0.00 59 1006.3
20260503204436 15 354 0.0 0.0 0.00 0.00 0.00 51 1006.3
20260503202936 16 343 0.0 4.8 0.00 0.00 0.00 51 1006.3
20260503201436 19 204 1.6 6.4 0.00 0.00 0.00 39 1006.2
20260503195936 18 204 0.0 4.8 0.00 0.00 0.00 43 1006.3
20260503194436 16 78 0.0 1.6 0.00 0.00 0.00 50 1006.4
20260503192936 17 81 0.0 0.0 0.00 0.00 0.00 46 1006.4
20260503191436 18 126 0.0 0.0 0.00 0.00 0.00 46 1006.4
20260503185936 20 43 0.0 4.8 0.00 0.00 0.00 40 1006.3
20260503184436 22 151 1.6 6.4 0.00 0.00 0.00 33 1006.2
20260503182936 22 136 3.2 8.0 0.00 0.00 0.00 31 1006.0
20260503181436 23 133 3.2 8.0 0.00 0.00 0.00 32 1005.9
20260503175936 25 156 4.8 14.5 0.00 0.00 0.00 28 1005.8
20260503174436 25 136 4.8 9.7 0.00 0.00 0.00 28 1005.8
20260503172936 26 188 1.6 6.4 0.00 0.00 0.00 29 1005.8
20260503171435 27 224 0.0 3.2 0.00 0.00 0.00 29 1005.7